Regional Weather Roundup
Issued by NWS

Home | Current Version | Previous Version | Graphics & Text | Print | Product List | Glossary On
Versions: 1 2 3 4 5 6 7 8 9 10 11 12 13 14 15 16 17 18 19 20 21 22 23 24 25 26 27 28 29 30 31 32 33 34 35 36 37 38 39 40 41 42 43 44 45 46 47 48 49 50
989
ASUS43 KDMX 240306
RWRIA

WEATHER ROUNDUP FOR IOWA
NATIONAL WEATHER SERVICE DES MOINES IA
1000 PM CDT TUE MAY 23 2017

NOTE: "FAIR" INDICATES FEW OR NO CLOUDS BELOW 12,000 FEET WITH NO
SIGNIFICANT WEATHER AND/OR OBSTRUCTIONS TO VISIBILITY.

* - THESE STATIONS ARE NOT NWS STATIONS...THUS NOT UNDER NWS
QUALITY CONTROL.  THEY ALSO DO NOT REPORT WEATHER SUCH
AS PRECIPITATION OR FOG.

IAZ001>003-012>014-020>022-031>034-043>046-240400-
   NORTHWEST IOWA

CITY           SKY/WX    TMP DP  RH WIND       PRES   REMARKS
CARROLL *      CLOUDY    52  48  87 N12       29.79S
CHEROKEE *     PTCLDY    47  47  99 CALM      29.84R
DENISON *      MOCLDY    50  46  87 CALM      29.83S
LE MARS *      CLOUDY    50  48  93 N8        29.86S
ORANGE CITY *  CLOUDY    52  46  82 N8        29.85S
SHELDON *      CLOUDY    50  48  93 NW10        N/A
SIOUX CITY     CLOUDY    50  48  93 N8        29.86R
SPENCER        CLOUDY    52  47  83 N9        29.82S
STORM LAKE *   CLOUDY    50  48  93 N7        29.82S
$$

IAZ055>058-069>071-079>083-090>094-240400-
   SOUTHWEST IOWA

CITY           SKY/WX    TMP DP  RH WIND       PRES   REMARKS
ATLANTIC *     CLOUDY    50  48  93 NW6       29.80S
AUDUBON *      PTCLDY    48  46  93 NW7       29.80S
CLARINDA *     CLOUDY    52  48  87 NW9       29.82S
COUNCIL BLFS * CLOUDY    50  50 100 NW8       29.83R
CRESTON *      MOCLDY    50  46  87 NW13      29.79S
HARLAN  *      MOCLDY    50  46  87 NW10      29.84S
LAMONI         CLEAR     50  45  83 NW7       29.77S
RED OAK *      PTCLDY    50  46  87 NW8       29.81S
SHENANDOAH *   MOCLDY    52  48  87 NW5       29.82S
$$

IAZ047>049-059>061-072>074-084-240400-
   CENTRAL IOWA

CITY           SKY/WX    TMP DP  RH WIND       PRES   REMARKS
AMES           CLOUDY    51  49  92 NW8       29.76R
ANKENY *       MOCLDY    52  46  82 NW6       29.77R
BOONE *        PTCLDY    50  48  93 N9        29.76S
CHARITON *     PTCLDY    48  46  93 W7        29.75S
DES MOINES     MOCLDY    52  49  89 NW7       29.75S
GRINNELL*      PTCLDY    49  46  90 W5        29.74F
KNOXVILLE *    MOCLDY    54  46  76 NW9       29.73S
MARSHALLTOWN   PTCLDY    49  47  93 NW5       29.73S
NEWTON *       PTCLDY    50  46  87 NW7       29.73S
PELLA *        CLEAR     51  46  83 NW9       29.75S
PERRY *        MOCLDY    52  49  90 NW6       29.77S
$$

IAZ004>006-015-016-023>025-035-036-240400-
   NORTH CENTRAL IOWA

CITY           SKY/WX    TMP DP  RH WIND       PRES   REMARKS
ALGONA *       DRIZZLE   52  50  93 N9G17     29.80S
CLARION *      CLOUDY    50  50 100 N10       29.77S
ESTHERVILLE    CLOUDY    50  49  96 N7        29.82R
FORT DODGE *   CLOUDY    50  46  87 N5        29.80R
MASON CITY     CLOUDY    50  48  93 N10       29.78S
FOREST CITY *  LGT RAIN  50  45  81 N10       29.78S
WEBSTER CITY * CLOUDY    52  48  87 N14       29.75S
IOWA FALLS *   DRIZZLE   52  48  87 N14       29.76S
$$

IAZ007>011-017>019-026>030-037>042-050>054-066-240400-
   NORTHEAST IOWA

CITY           SKY/WX    TMP DP  RH WIND       PRES   REMARKS
CEDAR RAPIDS   CLOUDY    53  52  96 CALM      29.71R
CHARLES CITY * RAIN      52  52 100 N9        29.75R
CLINTON *      CLOUDY    54  52  93 CALM      29.71R
DECORAH *      CLOUDY    52  50  93 N10G16    29.71S
DUBUQUE        CLOUDY    53  49  86 NW5       29.70S
MONTICELLO *   CLOUDY    54  48  82 CALM      29.70F
OELWEIN *      CLOUDY    52  52 100 N7        29.73R
WATERLOO       MOCLDY    52  49  89 NW7       29.72S
$$

IAZ064-065-067-068-078-240400-
   EAST CENTRAL IOWA

CITY           SKY/WX    TMP DP  RH WIND       PRES   REMARKS
DAVENPORT      PTCLDY    54  50  86 NW6       29.71S
IOWA CITY      CLOUDY    53  49  86 W3        29.73S
MT. PLEASANT * CLOUDY    54  46  74 CALM      29.72S
MUSCATINE *    PTCLDY    54  48  82 NW6       29.72S
QUAD CITIES    PTCLDY    55  49  80 W6        29.70S
$$

IAZ062-063-075>077-085>089-095>099-240400-
   SOUTHEAST IOWA

CITY           SKY/WX    TMP DP  RH WIND       PRES   REMARKS
BURLINGTON     PTCLDY    54  48  80 NW6       29.71S
FAIRFIELD *    MOCLDY    54  46  76 NW5       29.72S
FORT MADISON * PTCLDY    54  50  87 CALM      29.72S
KEOKUK *       MOCLDY    54  48  82 NW3       29.71S
OSKALOOSA *      N/A     51  45  80 NW6       29.73S
CENTERVILLE *    N/A     48  48 100 CALM      29.76S
OTTUMWA        CLEAR     49  45  86 W5        29.73S
WASHINGTON *   CLOUDY    54  48  82 CALM      29.73F
$$

ABBREVIATIONS USED IN REMARKS
   TC - TEMPERATURES IN CELSIUS
  WCI - WIND CHILL INDEX
   HX - HEAT INDEX
  VSB - VISIBILITY
$$





USA.gov is the U.S. government's official web portal to all federal, state and local government web resources and services.